Charter Quote
Worldwide +44-20-3874-8091 Call
Select Language Lang
SAFETY RELIABILITY EXPERIENCE

Avalon Airport (YMAV) - Jet Charter Services

AIRPORT INFORMATION
ICAOYMAV
IATAAVV
LOCATIONAvalon, Australia
FACILITY TYPEAIRPORT
Runway Length (ft) Width (ft) Surface Type Elevation (ft)
36/18 10000 148 ASP 34.98361

At Paramount Business Jets you can hire chartered private jets to and from Avalon Airport with as little as 4 hours of notice. All flights booked via Paramount Business Jets are operated by certified direct air carriers that meet and exceed the FAA part 135 and 121 protocol or a foreign equivalent safety authority. Furthermore, Paramount Business Jets subscribes to ARGUS for their third party safety checks of operators, aircraft, and crews prior each and every flight to and from Avalon Airport and worldwide.

  • Quote a trip using Avalon Airport or call us 24/7 - 365 days a year at +44-20-3874-8091.
Questions? Call +44-20-3874-8091

FBOs at Avalon Airport, YMAV, AVV

NAME ADDRESS PHONE WEBSITE
Avalon Airport Australia  LOCKED BAG #9  (613) 522-9462   

METAR Weather Data at Avalon Airport, YMAV, AVV

STATIONYMAV
OBSERVEDThu Jun 20, 13:00 UTC
NOWThu Jun 20, 13:13 UTC
AGE13 min ago
WINDWNW at 9 mph
VISIBILITY16 miles
METARYMAV 201300Z AUTO 30008KT 9999 // SCT105 05/05 Q1027

Call us on +44-20-3874-8091 (24 Hours) to Hire a Private Jet or Get a Quick Quote.

Find Airports Near any Location

Processing
...